This demonstration page uses our WeatherBlox Daily Observations layout. Learn more.

Left ArrowRight Arrow

Hourly Observations for May 13, 2018

Temp ( °F °C ) Dew Point ( °F °C ) Humidity (%) Winds ( mph kmh ) Pressure ( in mb ) Visibility ( mi km ) Precip ( " mm )
12:15 am 00:15 Cloudy with Mist and Fog 49 9.2 49 9.2 100 100 NNE 14 22 30.06 1018 5 8 N/A
12:35 am 00:35 Cloudy with Mist and Fog 49 9.2 49 9.2 100 100 NNE 10 17 30.06 1018 4 6 N/A
12:55 am 00:55 Cloudy with Mist and Fog 48 9.1 48 9.1 100 100 NNE 12 19 30.06 1018 2 3 N/A
1:15 am 01:15 Cloudy with Mist and Fog 48 9.1 48 9.1 100 100 NNE 12 19 30.03 1017 3 4 N/A
1:35 am 01:35 Cloudy with Mist and Fog 48 9 48 9 100 100 NE 14 22 30.03 1017 3 4 N/A
1:55 am 01:55 Cloudy with Mist and Fog 48 9.1 48 9.1 100 100 NNE 13 20 30.03 1017 2 3 N/A
2:15 am 02:15 Cloudy with Mist and Fog 48 9.1 48 9.1 100 100 NE 10 17 30.03 1017 1 2 N/A
2:35 am 02:35 Cloudy with Mist and Fog 48 9 48 9 100 100 NE 12 19 30.03 1017 4 6 N/A
2:55 am 02:55 Cloudy with Mist and Fog 48 9.1 48 9.1 100 100 NNE 10 17 29.97 1015 2 2 N/A
3:15 am 03:15 Cloudy with Mist and Fog 48 9.1 48 9.1 100 100 NNE 12 19 29.97 1015 2 2 N/A
3:35 am 03:35 Cloudy with Mist and Fog 48 9.1 48 9.1 100 100 NE 8 13 29.97 1015 1 2 N/A
3:55 am 03:55 Cloudy with Mist and Fog 49 9.2 49 9.2 100 100 NE 8 13 29.97 1015 1 2 N/A
4:15 am 04:15 Cloudy with Mist and Fog 49 9.2 49 9.2 100 100 NNE 7 11 29.97 1015 2 3 N/A
4:35 am 04:35 Cloudy with Fog 49 9.2 49 9.2 100 100 N 9 15 29.97 1015 1 1 N/A
4:55 am 04:55 Cloudy with Mist and Fog 49 9.2 49 9.2 100 100 N 9 15 29.97 1015 2 3 N/A
5:15 am 05:15 Cloudy with Mist and Fog 49 9.3 49 9.3 100 100 NNE 8 13 29.97 1015 4 6 N/A
5:35 am 05:35 Cloudy with Mist and Fog 49 9.3 49 9.3 100 100 N 8 13 29.97 1015 1 2 N/A
5:55 am 05:55 Cloudy with Mist and Fog 49 9.2 49 9.2 100 100 N 9 15 30.00 1016 3 4 N/A
6:15 am 06:15 Cloudy with Mist and Fog 49 9.3 49 9.3 100 100 N 10 17 30.00 1016 3 5 N/A
6:35 am 06:35 Cloudy with Mist and Fog 49 9.5 49 9.5 100 100 N 10 17 30.00 1016 3 5 N/A
6:55 am 06:55 Cloudy with Mist and Fog 49 9.5 49 9.5 100 100 N 13 20 30.00 1016 4 6 N/A
7:15 am 07:15 Cloudy with Mist and Fog 49 9.5 49 9.5 100 100 NNE 12 19 30.00 1016 2 3 N/A
7:35 am 07:35 Cloudy with Mist and Fog 49 9.5 49 9.5 100 100 NNE 14 22 30.03 1017 2 3 N/A
7:55 am 07:55 Cloudy with Mist and Fog 49 9.5 49 9.5 100 100 NE 12 19 30.03 1017 3 5 N/A
8:15 am 08:15 Cloudy with Mist and Fog 49 9.6 49 9.6 100 100 ENE 12 19 30.00 1016 5 8 N/A
8:35 am 08:35 Cloudy 50 10 50 10 100 100 ENE 13 20 30.00 1016 7 11 N/A
8:55 am 08:55 Cloudy 50 10.1 50 10.1 100 100 ENE 15 24 30.00 1016 7 11 N/A
9:15 am 09:15 Cloudy 51 10.6 51 10.6 100 100 E 12 19 30.00 1016 7 11 N/A
9:35 am 09:35 Cloudy 51 10.8 51 10.8 100 100 E 12 19 29.97 1015 7 11 N/A
9:55 am 09:55 Cloudy 52 11 52 11 100 100 E 10 17 29.97 1015 7 11 N/A
10:15 am 10:15 Cloudy 53 11.5 53 11.5 100 100 E 9 15 29.97 1015 7 11 N/A
10:35 am 10:35 Cloudy 54 12 53 11.7 98 98 ESE 9 15 29.97 1015 7 11 N/A
10:55 am 10:55 Cloudy 54 12.1 53 11.8 98 98 NE 6 9 30.00 1016 7 11 N/A
11:15 am 11:15 Cloudy 54 12.3 53 11.8 97 97 NNE 3 6 30.00 1016 7 11 N/A
11:35 am 11:35 Cloudy 55 12.5 54 12 97 97 N 3 6 30.00 1016 7 11 N/A
11:55 am 11:55 Cloudy 54 12.2 53 11.7 97 97 N N/A 30.00 1016 7 11 N/A
12:15 pm 12:15 Cloudy 54 12.3 53 11.8 97 97 N 6 9 30.00 1016 7 11 N/A
12:35 pm 12:35 Cloudy 54 12.3 53 11.9 97 97 N 3 6 30.00 1016 7 11 N/A
12:55 pm 12:55 Cloudy 54 12.4 53 11.9 97 97 N 5 7 30.00 1016 7 11 N/A
1:15 pm 13:15 Cloudy 55 12.5 54 12 97 97 N 6 9 30.00 1016 7 11 N/A
1:35 pm 13:35 Cloudy with Mist and Fog 55 13 54 12.2 95 95 N 7 11 29.94 1014 5 8 N/A
1:55 pm 13:55 Cloudy 56 13.3 54 12.2 93 93 NNW 5 7 29.94 1014 10 16 N/A
2:15 pm 14:15 Cloudy 57 13.8 54 12.4 91 91 N 5 7 29.94 1014 10 16 N/A
2:35 pm 14:35 Cloudy 57 14 55 12.5 91 91 N 3 6 29.94 1014 10 16 N/A
2:55 pm 14:55 Cloudy 58 14.4 55 12.5 88 88 NNW 5 7 29.94 1014 10 16 N/A
3:15 pm 15:15 Cloudy 58 14.6 55 12.5 87 87 NNW 6 9 29.94 1014 10 16 N/A
3:35 pm 15:35 Cloudy 59 14.8 55 12.7 87 87 NNW 6 9 29.94 1014 10 16 N/A
3:55 pm 15:55 Cloudy 59 14.8 55 12.7 87 87 NNW 6 9 29.94 1014 10 16 N/A
4:15 pm 16:15 Cloudy 59 15 55 13 88 88 NNW 8 13 29.94 1014 10 16 N/A
4:35 pm 16:35 Cloudy 59 14.8 55 13 89 89 NW 12 19 29.91 1013 10 16 N/A
4:55 pm 16:55 Cloudy 58 14.6 55 13 90 90 NW 7 11 29.91 1013 10 16 N/A
5:15 pm 17:15 Cloudy 59 15 56 13.2 89 89 NNW 10 17 29.91 1013 10 16 N/A
5:35 pm 17:35 Mostly Cloudy 60 15.8 56 13.3 85 85 NNW 10 17 29.88 1012 10 16 N/A
5:55 pm 17:55 Mostly Cloudy 61 16.3 56 13.2 82 82 NNW 8 13 29.88 1012 10 16 N/A
6:15 pm 18:15 Cloudy 60 15.6 56 13.1 85 85 N 8 13 29.88 1012 10 16 N/A
6:35 pm 18:35 Cloudy 59 15.1 56 13.1 88 88 N 9 15 29.91 1013 10 16 N/A
6:55 pm 18:55 Cloudy 59 14.9 56 13.1 89 89 N 8 13 29.91 1013 10 16 N/A
7:15 pm 19:15 Cloudy 59 14.8 56 13.1 90 90 NNE 9 15 29.91 1013 10 16 N/A
7:35 pm 19:35 Cloudy 58 14.4 56 13.1 92 92 N 12 19 29.91 1013 10 16 N/A
7:55 pm 19:55 Cloudy 57 14.1 55 13 93 93 NNE 10 17 29.91 1013 10 16 N/A
8:15 pm 20:15 Cloudy 57 13.7 55 12.7 94 94 NNE 10 17 29.91 1013 10 16 N/A
8:35 pm 20:35 Cloudy 56 13.5 55 12.5 94 94 NNE 9 15 29.91 1013 10 16 N/A
8:55 pm 20:55 Cloudy 56 13.5 55 12.6 94 94 N 9 15 29.91 1013 10 16 N/A
9:15 pm 21:15 Cloudy 56 13.2 55 12.5 96 96 NNE 10 17 29.91 1013 10 16 N/A
9:35 pm 21:35 Cloudy 55 13 54 12.3 96 96 NNE 9 15 29.91 1013 10 16 N/A
9:55 pm 21:55 Cloudy 55 13 55 12.5 97 97 NNE 10 17 29.94 1014 10 16 N/A
10:15 pm 22:15 Cloudy 55 13 55 12.5 97 97 N 8 13 29.94 1014 10 16 N/A
10:35 pm 22:35 Cloudy 55 12.7 54 12.4 98 98 NNE 9 15 29.94 1014 10 16 N/A
10:55 pm 22:55 Cloudy 55 12.6 54 12.4 99 99 N 13 20 29.94 1014 10 16 N/A
11:15 pm 23:15 Cloudy 55 12.5 54 12.3 99 99 N 12 19 29.94 1014 10 16 N/A
11:35 pm 23:35 Cloudy 55 12.5 55 12.5 100 100 N 13 20 29.94 1014 7 11 N/A
11:55 pm 23:55 Cloudy 54 12.2 54 12.2 100 100 N 10 17 29.97 1015 10 16 N/A

Powered by AerisWeather